Time,TemperatureF,DewpointF,PressureIn,WindDirection,WindDirectionDegrees,WindSpeedMPH,WindSpeedGustMPH,Humidity,HourlyPrecipIn,Conditions,Clouds,dailyrainin,SolarRadiationWatts/m^2,SoftwareType,DateUTC
2013-06-25 00:01:00,87.0,64.0,-100.00,SSE,150,9.0,17.0,47,0.00,,,0.00,0.000000,,2013-06-25 05:01:00,
2013-06-25 00:32:00,86.0,65.0,-100.00,SSE,155,11.0,17.0,49,0.00,,,0.00,0.000000,,2013-06-25 05:32:00,
2013-06-25 00:44:00,86.0,65.0,-100.00,SSE,155,11.0,17.0,49,0.00,,,0.00,0.000000,,2013-06-25 05:44:00,
2013-06-25 00:52:00,86.0,65.0,-100.00,SSE,155,11.0,17.0,49,0.00,,,0.00,0.000000,,2013-06-25 05:52:00,
2013-06-25 01:01:00,86.0,65.0,-100.00,SSE,155,11.0,17.0,49,0.00,,,0.00,0.000000,,2013-06-25 06:01:00,
2013-06-25 01:34:00,84.0,64.0,-100.00,SSE,159,11.0,18.0,51,0.00,,,0.00,0.000000,,2013-06-25 06:34:00,
2013-06-25 01:43:00,84.0,64.0,-100.00,SSE,159,11.0,18.0,51,0.00,,,0.00,0.000000,,2013-06-25 06:43:00,
2013-06-25 01:52:00,84.0,64.0,-100.00,SSE,159,11.0,18.0,51,0.00,,,0.00,0.000000,,2013-06-25 06:52:00,
2013-06-25 02:02:00,84.0,64.0,-100.00,SSE,159,11.0,18.0,51,0.00,,,0.00,0.000000,,2013-06-25 07:02:00,
2013-06-25 02:33:00,82.0,64.0,-100.00,SSE,162,13.0,21.0,55,0.00,,,0.00,0.000000,,2013-06-25 07:33:00,
2013-06-25 02:43:00,82.0,64.0,-100.00,SSE,162,13.0,21.0,55,0.00,,,0.00,0.000000,,2013-06-25 07:43:00,
2013-06-25 02:52:00,82.0,64.0,-100.00,SSE,162,13.0,21.0,55,0.00,,,0.00,0.000000,,2013-06-25 07:52:00,
2013-06-25 03:01:00,82.0,64.0,-100.00,SSE,162,13.0,21.0,55,0.00,,,0.00,0.000000,,2013-06-25 08:01:00,
2013-06-25 03:34:00,80.0,65.0,-100.00,SSE,161,14.0,25.0,61,0.00,,,0.00,0.000000,,2013-06-25 08:34:00,
2013-06-25 03:43:00,80.0,65.0,-100.00,SSE,161,14.0,25.0,61,0.00,,,0.00,0.000000,,2013-06-25 08:43:00,
2013-06-25 03:53:00,80.0,65.0,-100.00,SSE,161,14.0,25.0,61,0.00,,,0.00,0.000000,,2013-06-25 08:53:00,
2013-06-25 04:02:00,80.0,65.0,-100.00,SSE,161,14.0,25.0,61,0.00,,,0.00,0.000000,,2013-06-25 09:02:00,
2013-06-25 04:33:00,79.0,68.0,-100.00,SSE,166,11.0,22.0,69,0.00,,,0.00,0.000000,,2013-06-25 09:33:00,
2013-06-25 04:43:00,79.0,68.0,-100.00,SSE,166,11.0,22.0,69,0.00,,,0.00,0.000000,,2013-06-25 09:43:00,
2013-06-25 04:53:00,79.0,68.0,-100.00,SSE,166,11.0,22.0,69,0.00,,,0.00,0.000000,,2013-06-25 09:53:00,
2013-06-25 05:01:00,79.0,68.0,-100.00,SSE,166,11.0,22.0,69,0.00,,,0.00,0.000000,,2013-06-25 10:01:00,
2013-06-25 05:33:00,77.0,68.0,-100.00,South,169,9.0,19.0,74,0.00,,,0.00,0.000000,,2013-06-25 10:33:00,
2013-06-25 05:43:00,77.0,68.0,-100.00,South,169,9.0,19.0,74,0.00,,,0.00,0.000000,,2013-06-25 10:43:00,
2013-06-25 05:52:00,77.0,68.0,-100.00,South,169,9.0,19.0,74,0.00,,,0.00,0.000000,,2013-06-25 10:52:00,
2013-06-25 06:02:00,77.0,68.0,-100.00,South,169,9.0,19.0,74,0.00,,,0.00,0.000000,,2013-06-25 11:02:00,
2013-06-25 06:34:00,77.0,69.0,-100.00,South,170,10.0,17.0,77,0.00,,,0.00,0.000000,,2013-06-25 11:34:00,
2013-06-25 06:43:00,77.0,69.0,-100.00,South,170,10.0,17.0,77,0.00,,,0.00,0.000000,,2013-06-25 11:43:00,
2013-06-25 06:52:00,77.0,69.0,-100.00,South,170,10.0,17.0,77,0.00,,,0.00,0.000000,,2013-06-25 11:52:00,
2013-06-25 07:01:00,77.0,69.0,-100.00,South,170,10.0,17.0,77,0.00,,,0.00,0.000000,,2013-06-25 12:01:00,
2013-06-25 07:33:00,78.0,70.0,-100.00,South,178,9.0,19.0,77,0.00,,,0.00,25.000000,,2013-06-25 12:33:00,
2013-06-25 07:43:00,78.0,70.0,-100.00,South,178,9.0,19.0,77,0.00,,,0.00,25.000000,,2013-06-25 12:43:00,
2013-06-25 07:55:00,78.0,70.0,-100.00,South,178,9.0,19.0,77,0.00,,,0.00,25.000000,,2013-06-25 12:55:00,
2013-06-25 08:02:00,78.0,70.0,-100.00,South,178,9.0,19.0,77,0.00,,,0.00,25.000000,,2013-06-25 13:02:00,
2013-06-25 08:34:00,79.0,71.0,-100.00,SSE,166,13.0,22.0,77,0.00,,,0.00,139.000000,,2013-06-25 13:34:00,
2013-06-25 08:42:00,79.0,71.0,-100.00,SSE,166,13.0,22.0,77,0.00,,,0.00,139.000000,,2013-06-25 13:42:00,
2013-06-25 08:53:00,79.0,71.0,-100.00,SSE,166,13.0,22.0,77,0.00,,,0.00,139.000000,,2013-06-25 13:53:00,
2013-06-25 09:01:00,79.0,71.0,-100.00,SSE,166,13.0,22.0,77,0.00,,,0.00,139.000000,,2013-06-25 14:01:00,
2013-06-25 09:34:00,82.0,72.0,-100.00,South,178,12.0,20.0,73,0.00,,,0.00,269.000000,,2013-06-25 14:34:00,
2013-06-25 09:43:00,82.0,72.0,-100.00,South,178,12.0,20.0,73,0.00,,,0.00,269.000000,,2013-06-25 14:43:00,
2013-06-25 09:53:00,82.0,72.0,-100.00,South,178,12.0,20.0,73,0.00,,,0.00,269.000000,,2013-06-25 14:53:00,
2013-06-25 10:01:00,82.0,72.0,-100.00,South,178,12.0,20.0,73,0.00,,,0.00,269.000000,,2013-06-25 15:01:00,
2013-06-25 10:32:00,85.0,72.0,-100.00,South,182,12.0,19.0,65,0.00,,,0.00,522.000000,,2013-06-25 15:32:00,
2013-06-25 10:44:00,85.0,72.0,-100.00,South,182,12.0,19.0,65,0.00,,,0.00,522.000000,,2013-06-25 15:44:00,
2013-06-25 10:53:00,85.0,72.0,-100.00,South,182,12.0,19.0,65,0.00,,,0.00,522.000000,,2013-06-25 15:53:00,
2013-06-25 11:03:00,85.0,72.0,-100.00,South,182,12.0,19.0,65,0.00,,,0.00,522.000000,,2013-06-25 16:03:00,
2013-06-25 11:35:00,87.0,70.0,-100.00,South,181,13.0,23.0,57,0.00,,,0.00,663.000000,,2013-06-25 16:35:00,
2013-06-25 11:44:00,87.0,70.0,-100.00,South,181,13.0,23.0,57,0.00,,,0.00,663.000000,,2013-06-25 16:44:00,
2013-06-25 11:52:00,87.0,70.0,-100.00,South,181,13.0,23.0,57,0.00,,,0.00,663.000000,,2013-06-25 16:52:00,
2013-06-25 12:01:00,87.0,70.0,-100.00,South,181,13.0,23.0,57,0.00,,,0.00,663.000000,,2013-06-25 17:01:00,
2013-06-25 12:34:00,91.0,67.0,-100.00,South,180,12.0,21.0,46,0.00,,,0.00,891.000000,,2013-06-25 17:34:00,
2013-06-25 12:44:00,91.0,67.0,-100.00,South,180,12.0,21.0,46,0.00,,,0.00,891.000000,,2013-06-25 17:44:00,
2013-06-25 12:53:00,91.0,67.0,-100.00,South,180,12.0,21.0,46,0.00,,,0.00,891.000000,,2013-06-25 17:53:00,
2013-06-25 13:02:00,91.0,67.0,-100.00,South,180,12.0,21.0,46,0.00,,,0.00,891.000000,,2013-06-25 18:02:00,
2013-06-25 13:34:00,93.0,67.0,-100.00,South,176,13.0,25.0,43,0.00,,,0.00,961.000000,,2013-06-25 18:34:00,
2013-06-25 13:45:00,93.0,67.0,-100.00,South,176,13.0,25.0,43,0.00,,,0.00,961.000000,,2013-06-25 18:45:00,
2013-06-25 13:53:00,93.0,67.0,-100.00,South,176,13.0,25.0,43,0.00,,,0.00,961.000000,,2013-06-25 18:53:00,
2013-06-25 14:01:00,93.0,67.0,-100.00,South,176,13.0,25.0,43,0.00,,,0.00,961.000000,,2013-06-25 19:01:00,
2013-06-25 14:33:00,95.0,66.0,-100.00,South,177,11.0,20.0,39,0.00,,,0.00,999.000000,,2013-06-25 19:33:00,
2013-06-25 14:44:00,95.0,66.0,-100.00,South,177,11.0,20.0,39,0.00,,,0.00,999.000000,,2013-06-25 19:44:00,
2013-06-25 14:54:00,95.0,66.0,-100.00,South,177,11.0,20.0,39,0.00,,,0.00,999.000000,,2013-06-25 19:54:00,
2013-06-25 15:02:00,95.0,66.0,-100.00,South,177,11.0,20.0,39,0.00,,,0.00,999.000000,,2013-06-25 20:02:00,
2013-06-25 15:33:00,96.0,65.0,-100.00,South,180,13.0,23.0,37,0.00,,,0.00,978.000000,,2013-06-25 20:33:00,
2013-06-25 15:43:00,96.0,65.0,-100.00,South,180,13.0,23.0,37,0.00,,,0.00,978.000000,,2013-06-25 20:43:00,
2013-06-25 15:52:00,96.0,65.0,-100.00,South,180,13.0,23.0,37,0.00,,,0.00,978.000000,,2013-06-25 20:52:00,
2013-06-25 16:01:00,96.0,65.0,-100.00,South,180,13.0,23.0,37,0.00,,,0.00,978.000000,,2013-06-25 21:01:00,
2013-06-25 16:34:00,97.0,66.0,-100.00,South,170,12.0,21.0,36,0.00,,,0.00,891.000000,,2013-06-25 21:34:00,
2013-06-25 16:43:00,97.0,66.0,-100.00,South,170,12.0,21.0,36,0.00,,,0.00,891.000000,,2013-06-25 21:43:00,
2013-06-25 16:53:00,97.0,66.0,-100.00,South,170,12.0,21.0,36,0.00,,,0.00,891.000000,,2013-06-25 21:53:00,
2013-06-25 17:01:00,97.0,66.0,-100.00,South,170,12.0,21.0,36,0.00,,,0.00,891.000000,,2013-06-25 22:01:00,
2013-06-25 17:34:00,97.0,64.0,-100.00,South,181,10.0,19.0,34,0.00,,,0.00,584.000000,,2013-06-25 22:34:00,
2013-06-25 17:42:00,97.0,64.0,-100.00,South,181,10.0,19.0,34,0.00,,,0.00,584.000000,,2013-06-25 22:42:00,
2013-06-25 17:52:00,97.0,64.0,-100.00,South,181,10.0,19.0,34,0.00,,,0.00,584.000000,,2013-06-25 22:52:00,
2013-06-25 18:01:00,97.0,64.0,-100.00,South,181,10.0,19.0,34,0.00,,,0.00,584.000000,,2013-06-25 23:01:00,
2013-06-25 18:34:00,97.0,63.0,-100.00,South,176,12.0,22.0,33,0.00,,,0.00,431.000000,,2013-06-25 23:34:00,
2013-06-25 18:44:00,97.0,63.0,-100.00,South,176,12.0,22.0,33,0.00,,,0.00,431.000000,,2013-06-25 23:44:00,
2013-06-25 18:52:00,97.0,63.0,-100.00,South,176,12.0,22.0,33,0.00,,,0.00,431.000000,,2013-06-25 23:52:00,
2013-06-25 19:02:00,97.0,63.0,-100.00,South,176,12.0,22.0,33,0.00,,,0.00,431.000000,,2013-06-26 00:02:00,
2013-06-25 20:33:00,93.0,60.0,-100.00,SSE,164,9.0,18.0,34,-99.99,,,0.00,122.000000,,2013-06-26 01:33:00,
2013-06-25 20:43:00,93.0,60.0,-100.00,SSE,164,9.0,18.0,34,-99.99,,,0.00,122.000000,,2013-06-26 01:43:00,
2013-06-25 20:53:00,93.0,60.0,-100.00,SSE,164,9.0,18.0,34,-99.99,,,0.00,122.000000,,2013-06-26 01:53:00,
2013-06-25 21:02:00,93.0,60.0,-100.00,SSE,164,9.0,18.0,34,-99.99,,,0.00,122.000000,,2013-06-26 02:02:00,
2013-06-25 21:34:00,90.0,61.0,-100.00,SSE,156,9.0,14.0,38,0.00,,,0.00,7.000000,,2013-06-26 02:34:00,
2013-06-25 21:43:00,90.0,61.0,-100.00,SSE,156,9.0,14.0,38,0.00,,,0.00,7.000000,,2013-06-26 02:43:00,
2013-06-25 21:53:00,90.0,61.0,-100.00,SSE,156,9.0,14.0,38,0.00,,,0.00,7.000000,,2013-06-26 02:53:00,
2013-06-25 22:02:00,90.0,61.0,-100.00,SSE,156,9.0,14.0,38,0.00,,,0.00,7.000000,,2013-06-26 03:02:00,
2013-06-25 22:33:00,89.0,61.0,-100.00,SSE,155,10.0,17.0,39,0.00,,,0.00,0.000000,,2013-06-26 03:33:00,
2013-06-25 22:43:00,89.0,61.0,-100.00,SSE,155,10.0,17.0,39,0.00,,,0.00,0.000000,,2013-06-26 03:43:00,
2013-06-25 22:52:00,89.0,61.0,-100.00,SSE,155,10.0,17.0,39,0.00,,,0.00,0.000000,,2013-06-26 03:52:00,
2013-06-25 23:01:00,89.0,61.0,-100.00,SSE,155,10.0,17.0,39,0.00,,,0.00,0.000000,,2013-06-26 04:01:00,
2013-06-25 23:33:00,88.0,63.0,-100.00,SSE,157,13.0,20.0,43,0.00,,,0.00,0.000000,,2013-06-26 04:33:00,
2013-06-25 23:43:00,88.0,63.0,-100.00,SSE,157,13.0,20.0,43,0.00,,,0.00,0.000000,,2013-06-26 04:43:00,
2013-06-25 23:53:00,88.0,63.0,-100.00,SSE,157,13.0,20.0,43,0.00,,,0.00,0.000000,,2013-06-26 04:53:00,